Location: Tierz
(42.1336°N, 0.3549°W)
Time: 06:44:58
(UTC+00:00)

OAO 2 Rocket - Pass Details

Date: 29 October 2020
Orbit: 676 x 746 km, 35.0° (Epoch: 26 November)

Event Time Altitude Azimuth Distance (km) Brightness Sun altitude
Rises 18:41:42 0° 256° (WSW) 3,060 8.1 -19.6°
Reaches altitude 10° 18:44:15 10° 248° (WSW) 2,133 6.8 -20.1°
Maximum altitude 18:48:48 36° 182° (S) 1,069 4.2 -20.9°
Enters shadow 18:50:06 31° 149° (SSE) 1,189 4.2 -21.2°
